Time,TemperatureF,DewpointF,PressureIn,WindDirection,WindDirectionDegrees,WindSpeedMPH,WindSpeedGustMPH,Humidity,HourlyPrecipIn,Conditions,Clouds,dailyrainin,SolarRadiationWatts/m^2,SoftwareType,DateUTC
2013-03-16 00:00:00,60.0,41.8,30.00,SW,226,3.0,9.0,51,0.00,,---,0.00,0.00,VWS V14.01,2013-03-16 04:00:00,
2013-03-16 00:02:00,59.9,41.8,30.01,SSW,211,8.0,8.0,51,0.00,,---,0.00,0.00,VWS V14.01,2013-03-16 04:02:00,
2013-03-16 00:07:00,59.8,42.2,30.01,SW,216,7.0,7.0,52,0.00,,---,0.00,0.00,VWS V14.01,2013-03-16 04:07:00,
2013-03-16 00:12:00,59.8,42.2,30.01,SW,215,6.0,8.0,52,0.00,,---,0.00,0.00,VWS V14.01,2013-03-16 04:12:00,
2013-03-16 00:20:00,59.7,42.1,30.00,SSW,210,8.0,9.0,52,0.00,,---,0.00,0.00,VWS V14.01,2013-03-16 04:20:00,
2013-03-16 00:25:00,59.6,42.0,30.00,SW,227,4.0,8.0,52,0.00,,---,0.00,0.00,VWS V14.01,2013-03-16 04:25:00,
2013-03-16 00:30:00,59.5,41.9,30.00,SW,225,3.0,6.0,52,0.00,,---,0.00,0.00,VWS V14.01,2013-03-16 04:30:00,
2013-03-16 00:35:00,59.4,41.8,30.00,SW,217,4.0,6.0,52,0.00,,---,0.00,0.00,VWS V14.01,2013-03-16 04:35:00,
2013-03-16 00:40:00,59.2,41.6,30.00,SW,220,2.0,7.0,52,0.00,,---,0.00,0.00,VWS V14.01,2013-03-16 04:40:00,
2013-03-16 00:45:00,59.1,42.0,30.00,SW,223,1.0,5.0,53,0.00,,---,0.00,0.00,VWS V14.01,2013-03-16 04:45:00,
2013-03-16 00:51:00,58.9,41.8,30.00,SSW,213,5.0,5.0,53,0.00,,---,0.00,0.00,VWS V14.01,2013-03-16 04:51:00,
2013-03-16 00:56:00,58.7,41.6,30.00,SSW,207,6.0,8.0,53,0.00,,---,0.00,0.00,VWS V14.01,2013-03-16 04:56:00,
2013-03-16 01:01:00,58.6,42.0,30.00,WSW,237,4.0,8.0,54,0.00,,---,0.00,0.00,VWS V14.01,2013-03-16 05:01:00,
2013-03-16 01:06:00,58.6,42.0,30.00,SW,219,3.0,7.0,54,0.00,,---,0.00,0.00,VWS V14.01,2013-03-16 05:06:00,
2013-03-16 01:11:00,58.5,41.9,30.00,SW,217,3.0,6.0,54,0.00,,---,0.00,0.00,VWS V14.01,2013-03-16 05:11:00,
2013-03-16 01:16:00,58.3,41.8,30.00,SW,226,2.0,6.0,54,0.00,,---,0.00,0.00,VWS V14.01,2013-03-16 05:16:00,
2013-03-16 01:21:00,58.2,42.1,30.00,SW,215,5.0,5.0,55,0.00,,---,0.00,0.00,VWS V14.01,2013-03-16 05:21:00,
2013-03-16 01:26:00,58.0,41.9,30.00,SW,217,2.0,2.0,55,0.00,,---,0.00,0.00,VWS V14.01,2013-03-16 05:26:00,
2013-03-16 01:32:00,57.9,41.8,30.00,SW,223,3.0,3.0,55,0.00,,---,0.00,0.00,VWS V14.01,2013-03-16 05:32:00,
2013-03-16 01:37:00,57.7,41.7,29.99,SW,216,3.0,4.0,55,0.00,,---,0.00,0.00,VWS V14.01,2013-03-16 05:37:00,
2013-03-16 01:42:00,57.7,42.1,29.99,SSW,207,5.0,5.0,56,0.00,,---,0.00,0.00,VWS V14.01,2013-03-16 05:42:00,
2013-03-16 01:47:00,57.5,41.9,29.99,SSW,211,0.0,3.0,56,0.00,,---,0.00,0.00,VWS V14.01,2013-03-16 05:47:00,
2013-03-16 01:52:00,57.3,41.8,29.99,SSW,213,0.0,0.0,56,0.00,,---,0.00,0.00,VWS V14.01,2013-03-16 05:52:00,
2013-03-16 01:57:00,57.1,42.0,29.99,SW,220,0.0,3.0,57,0.00,,---,0.00,0.00,VWS V14.01,2013-03-16 05:57:00,
2013-03-16 02:02:00,56.9,41.8,29.99,SW,220,0.0,0.0,57,0.00,,---,0.00,0.00,VWS V14.01,2013-03-16 06:02:00,
2013-03-16 02:07:00,56.7,41.7,29.99,SW,220,0.0,0.0,57,0.00,,---,0.00,0.00,VWS V14.01,2013-03-16 06:07:00,
2013-03-16 02:12:00,56.5,41.9,29.98,SW,220,0.0,1.0,58,0.00,,---,0.00,0.00,VWS V14.01,2013-03-16 06:12:00,
2013-03-16 02:18:00,56.3,42.2,29.98,SW,220,2.0,2.0,59,0.00,,---,0.00,0.00,VWS V14.01,2013-03-16 06:18:00,
2013-03-16 02:23:00,56.2,42.1,29.99,SW,220,0.0,1.0,59,0.00,,---,0.00,0.00,VWS V14.01,2013-03-16 06:23:00,
2013-03-16 02:28:00,56.1,42.0,29.98,SW,219,0.0,0.0,59,0.00,,---,0.00,0.00,VWS V14.01,2013-03-16 06:28:00,
2013-03-16 02:33:00,56.0,42.3,29.98,SW,220,2.0,2.0,60,0.00,,---,0.00,0.00,VWS V14.01,2013-03-16 06:33:00,
2013-03-16 02:38:00,56.1,42.4,29.99,SW,221,2.0,4.0,60,0.00,,---,0.00,0.00,VWS V14.01,2013-03-16 06:38:00,
2013-03-16 02:43:00,56.2,42.5,29.98,SW,230,0.0,4.0,60,0.00,,---,0.00,0.00,VWS V14.01,2013-03-16 06:43:00,
2013-03-16 02:49:00,56.4,42.7,29.99,SW,230,0.0,3.0,60,0.00,,---,0.00,0.00,VWS V14.01,2013-03-16 06:49:00,
2013-03-16 02:54:00,56.6,42.9,29.99,SW,217,5.0,8.0,60,0.00,,---,0.00,0.00,VWS V14.01,2013-03-16 06:54:00,
2013-03-16 02:59:00,56.8,42.6,29.99,SW,227,5.0,6.0,59,0.00,,---,0.00,0.00,VWS V14.01,2013-03-16 06:59:00,
2013-03-16 03:04:00,57.1,42.9,29.99,SW,227,2.0,5.0,59,0.00,,---,0.00,0.00,VWS V14.01,2013-03-16 07:04:00,
2013-03-16 03:09:00,57.2,43.0,29.99,SW,225,1.0,5.0,59,0.00,,---,0.00,0.00,VWS V14.01,2013-03-16 07:09:00,
2013-03-16 03:14:00,57.3,43.1,29.99,SW,223,3.0,3.0,59,0.00,,---,0.00,0.00,VWS V14.01,2013-03-16 07:14:00,
2013-03-16 03:20:00,57.2,43.0,29.99,SW,222,0.0,4.0,59,0.00,,---,0.00,0.00,VWS V14.01,2013-03-16 07:20:00,
2013-03-16 03:25:00,57.1,42.9,29.99,SW,217,3.0,4.0,59,0.00,,---,0.00,0.00,VWS V14.01,2013-03-16 07:25:00,
2013-03-16 03:30:00,56.9,43.2,29.99,SW,217,0.0,4.0,60,0.00,,---,0.00,0.00,VWS V14.01,2013-03-16 07:30:00,
2013-03-16 03:35:00,56.8,43.1,29.99,SW,215,4.0,5.0,60,0.00,,---,0.00,0.00,VWS V14.01,2013-03-16 07:35:00,
2013-03-16 03:40:00,56.7,43.0,29.99,SW,215,3.0,4.0,60,0.00,,---,0.00,0.00,VWS V14.01,2013-03-16 07:40:00,
2013-03-16 03:45:00,56.6,42.9,29.99,SW,214,0.0,0.0,60,0.00,,---,0.00,0.00,VWS V14.01,2013-03-16 07:45:00,
2013-03-16 03:50:00,56.5,43.2,29.98,SSW,213,5.0,6.0,61,0.00,,---,0.00,0.00,VWS V14.01,2013-03-16 07:50:00,
2013-03-16 03:55:00,56.5,43.2,29.98,SW,216,3.0,5.0,61,0.00,,---,0.00,0.00,VWS V14.01,2013-03-16 07:55:00,
2013-03-16 04:00:00,56.6,43.3,29.98,SW,220,4.0,7.0,61,0.00,,---,0.00,0.00,VWS V14.01,2013-03-16 08:00:00,
2013-03-16 04:05:00,56.7,43.4,29.98,SW,227,4.0,7.0,61,0.00,,---,0.00,0.00,VWS V14.01,2013-03-16 08:05:00,
2013-03-16 04:11:00,57.0,43.7,29.98,SW,227,5.0,7.0,61,0.00,,---,0.00,0.00,VWS V14.01,2013-03-16 08:11:00,
2013-03-16 04:16:00,57.4,44.1,29.98,SW,230,4.0,6.0,61,0.00,,---,0.00,0.00,VWS V14.01,2013-03-16 08:16:00,
2013-03-16 04:21:00,57.6,43.8,29.98,SW,221,6.0,10.0,60,0.00,,---,0.00,0.00,VWS V14.01,2013-03-16 08:21:00,
2013-03-16 04:27:00,58.0,44.2,29.98,WSW,244,8.0,9.0,60,0.00,,---,0.00,0.00,VWS V14.01,2013-03-16 08:27:00,
2013-03-16 04:32:00,58.4,44.6,29.98,WSW,250,6.0,6.0,60,0.00,,---,0.00,0.00,VWS V14.01,2013-03-16 08:32:00,
2013-03-16 04:37:00,58.5,44.2,29.98,WSW,241,5.0,6.0,59,0.00,,---,0.00,0.00,VWS V14.01,2013-03-16 08:37:00,
2013-03-16 04:42:00,58.6,44.3,29.98,SW,232,9.0,9.0,59,0.00,,---,0.00,0.00,VWS V14.01,2013-03-16 08:42:00,
2013-03-16 04:47:00,58.6,44.3,29.98,WSW,237,10.0,11.0,59,0.00,,---,0.00,0.00,VWS V14.01,2013-03-16 08:47:00,
2013-03-16 04:52:00,58.4,44.1,29.98,WSW,242,4.0,9.0,59,0.00,,---,0.00,0.00,VWS V14.01,2013-03-16 08:52:00,
2013-03-16 04:58:00,58.4,44.6,29.98,SW,235,4.0,6.0,60,0.00,,---,0.00,0.00,VWS V14.01,2013-03-16 08:58:00,
2013-03-16 05:03:00,58.3,44.5,29.98,SW,221,4.0,9.0,60,0.00,,---,0.00,0.00,VWS V14.01,2013-03-16 09:03:00,
2013-03-16 05:08:00,58.2,44.4,29.98,WSW,244,6.0,7.0,60,0.00,,---,0.00,0.00,VWS V14.01,2013-03-16 09:08:00,
2013-03-16 05:13:00,58.0,44.2,29.98,WSW,248,4.0,6.0,60,0.00,,---,0.00,0.00,VWS V14.01,2013-03-16 09:13:00,
2013-03-16 05:18:00,57.9,44.5,29.98,SW,229,6.0,10.0,61,0.00,,---,0.00,0.00,VWS V14.01,2013-03-16 09:18:00,
2013-03-16 05:23:00,57.8,44.5,29.98,WSW,242,6.0,11.0,61,0.00,,---,0.00,0.00,VWS V14.01,2013-03-16 09:23:00,
2013-03-16 05:28:00,57.8,44.5,29.99,SW,219,5.0,8.0,61,0.00,,---,0.00,0.00,VWS V14.01,2013-03-16 09:28:00,
2013-03-16 05:33:00,57.6,44.7,29.98,SW,233,6.0,7.0,62,0.00,,---,0.00,0.00,VWS V14.01,2013-03-16 09:33:00,
2013-03-16 05:39:00,57.4,44.5,29.98,WSW,243,7.0,7.0,62,0.00,,---,0.00,0.00,VWS V14.01,2013-03-16 09:39:00,
2013-03-16 05:44:00,57.3,44.4,29.99,SW,222,4.0,4.0,62,0.00,,---,0.00,0.00,VWS V14.01,2013-03-16 09:44:00,
2013-03-16 05:49:00,57.3,44.4,29.99,WSW,253,6.0,8.0,62,0.00,,---,0.00,0.00,VWS V14.01,2013-03-16 09:49:00,
2013-03-16 05:54:00,57.2,44.7,29.99,WSW,241,8.0,9.0,63,0.00,,---,0.00,0.00,VWS V14.01,2013-03-16 09:54:00,
2013-03-16 06:00:00,57.0,44.5,29.99,WSW,244,7.0,12.0,63,0.00,,---,0.00,0.00,VWS V14.01,2013-03-16 10:00:00,
2013-03-16 06:05:00,57.0,44.5,29.98,WSW,246,5.0,10.0,63,0.00,,---,0.00,0.00,VWS V14.01,2013-03-16 10:05:00,
2013-03-16 06:10:00,56.9,44.5,29.99,WSW,251,6.0,8.0,63,0.00,,---,0.00,0.00,VWS V14.01,2013-03-16 10:10:00,
2013-03-16 06:15:00,56.9,44.9,29.99,WSW,243,5.0,11.0,64,0.00,,---,0.00,0.00,VWS V14.01,2013-03-16 10:15:00,
2013-03-16 06:20:00,56.7,44.7,29.99,WSW,250,6.0,10.0,64,0.00,,---,0.00,0.00,VWS V14.01,2013-03-16 10:20:00,
2013-03-16 06:25:00,56.7,44.7,29.99,WSW,244,8.0,11.0,64,0.00,,---,0.00,0.00,VWS V14.01,2013-03-16 10:25:00,
2013-03-16 06:30:00,56.7,44.7,29.99,WSW,245,5.0,8.0,64,0.00,,---,0.00,0.00,VWS V14.01,2013-03-16 10:30:00,
2013-03-16 06:36:00,56.5,44.5,29.99,WSW,246,5.0,8.0,64,0.00,,---,0.00,0.00,VWS V14.01,2013-03-16 10:36:00,
2013-03-16 06:41:00,56.4,44.4,29.99,WSW,244,8.0,10.0,64,0.00,,---,0.00,0.00,VWS V14.01,2013-03-16 10:41:00,
2013-03-16 06:46:00,56.3,44.7,29.99,SW,227,10.0,10.0,65,0.00,,---,0.00,0.00,VWS V14.01,2013-03-16 10:46:00,
2013-03-16 06:51:00,56.2,44.6,29.99,SW,232,6.0,6.0,65,0.00,,---,0.00,0.00,VWS V14.01,2013-03-16 10:51:00,
2013-03-16 06:57:00,56.1,44.5,29.99,SW,236,6.0,8.0,65,0.00,,---,0.00,0.00,VWS V14.01,2013-03-16 10:57:00,
2013-03-16 07:02:00,56.1,44.5,29.99,SW,236,6.0,7.0,65,0.00,,---,0.00,0.00,VWS V14.01,2013-03-16 11:02:00,
2013-03-16 07:07:00,56.1,44.5,29.99,SW,234,4.0,8.0,65,0.00,,---,0.00,0.00,VWS V14.01,2013-03-16 11:07:00,
2013-03-16 07:12:00,55.9,44.3,29.99,SW,223,6.0,10.0,65,0.00,,---,0.00,0.00,VWS V14.01,2013-03-16 11:12:00,
2013-03-16 07:17:00,55.8,44.6,29.99,SW,230,7.0,9.0,66,0.00,,---,0.00,0.00,VWS V14.01,2013-03-16 11:17:00,
2013-03-16 07:22:00,55.7,44.5,29.99,WSW,246,9.0,10.0,66,0.00,,---,0.00,0.00,VWS V14.01,2013-03-16 11:22:00,
2013-03-16 07:28:00,55.5,44.3,29.99,WSW,240,9.0,10.0,66,0.00,,---,0.00,0.00,VWS V14.01,2013-03-16 11:28:00,
2013-03-16 07:33:00,55.4,44.2,29.99,WSW,241,8.0,8.0,66,0.00,,---,0.00,0.00,VWS V14.01,2013-03-16 11:33:00,
2013-03-16 07:38:00,55.3,44.5,29.99,WSW,239,4.0,9.0,67,0.00,,---,0.00,0.00,VWS V14.01,2013-03-16 11:38:00,
2013-03-16 07:43:00,55.2,44.5,29.99,WSW,240,4.0,7.0,67,0.00,,---,0.00,5.00,VWS V14.01,2013-03-16 11:43:00,
2013-03-16 07:48:00,55.0,44.3,30.00,WSW,253,6.0,8.0,67,0.00,,---,0.00,11.00,VWS V14.01,2013-03-16 11:48:00,
2013-03-16 07:53:00,55.0,44.7,30.00,WSW,239,9.0,10.0,68,0.00,,---,0.00,16.00,VWS V14.01,2013-03-16 11:53:00,
2013-03-16 07:58:00,55.0,44.7,30.00,SSW,202,7.0,10.0,68,0.00,,---,0.00,21.00,VWS V14.01,2013-03-16 11:58:00,
2013-03-16 08:03:00,55.0,44.7,30.00,WSW,237,5.0,7.0,68,0.00,,---,0.00,23.00,VWS V14.01,2013-03-16 12:03:00,
2013-03-16 08:08:00,54.9,44.5,30.00,WSW,243,4.0,8.0,68,0.00,,---,0.00,23.00,VWS V14.01,2013-03-16 12:08:00,
2013-03-16 08:14:00,54.9,44.5,30.00,WSW,243,5.0,9.0,68,0.00,,---,0.00,30.00,VWS V14.01,2013-03-16 12:14:00,
2013-03-16 08:19:00,54.8,44.5,30.00,SW,220,7.0,10.0,68,0.00,,---,0.00,35.00,VWS V14.01,2013-03-16 12:19:00,
2013-03-16 08:24:00,54.9,44.5,30.00,WSW,249,8.0,10.0,68,0.00,,---,0.00,42.00,VWS V14.01,2013-03-16 12:24:00,
2013-03-16 08:29:00,55.1,44.7,29.99,SW,217,6.0,14.0,68,0.00,,---,0.00,39.00,VWS V14.01,2013-03-16 12:29:00,
2013-03-16 08:34:00,55.2,44.8,30.00,WSW,239,6.0,11.0,68,0.00,,---,0.00,33.00,VWS V14.01,2013-03-16 12:34:00,
2013-03-16 08:39:00,55.3,44.9,30.00,West,259,10.0,14.0,68,0.00,,---,0.00,91.00,VWS V14.01,2013-03-16 12:39:00,
2013-03-16 08:44:00,55.6,45.2,30.00,WSW,253,7.0,12.0,68,0.00,,---,0.00,109.00,VWS V14.01,2013-03-16 12:44:00,
2013-03-16 08:49:00,56.0,45.2,30.00,WSW,245,12.0,15.0,67,0.00,,---,0.00,113.00,VWS V14.01,2013-03-16 12:49:00,
2013-03-16 08:54:00,56.4,45.2,30.00,SW,236,7.0,13.0,66,0.00,,---,0.00,158.00,VWS V14.01,2013-03-16 12:54:00,
2013-03-16 09:00:00,56.8,45.6,30.00,SW,224,8.0,13.0,66,0.00,,---,0.00,181.00,VWS V14.01,2013-03-16 13:00:00,
2013-03-16 09:05:00,57.2,45.6,30.00,WSW,244,8.0,13.0,65,0.00,,---,0.00,202.00,VWS V14.01,2013-03-16 13:05:00,
2013-03-16 09:10:00,57.5,45.4,30.00,WSW,247,8.0,11.0,64,0.00,,---,0.00,225.00,VWS V14.01,2013-03-16 13:10:00,
2013-03-16 09:15:00,57.9,45.8,30.00,West,259,14.0,14.0,64,0.00,,---,0.00,243.00,VWS V14.01,2013-03-16 13:15:00,
2013-03-16 09:20:00,58.2,45.7,30.01,WSW,242,10.0,12.0,63,0.00,,---,0.00,258.00,VWS V14.01,2013-03-16 13:20:00,
2013-03-16 09:25:00,58.6,45.6,30.01,WSW,252,11.0,13.0,62,0.00,,---,0.00,276.00,VWS V14.01,2013-03-16 13:25:00,
2013-03-16 09:30:00,59.1,46.1,30.01,WSW,244,9.0,13.0,62,0.00,,---,0.00,292.00,VWS V14.01,2013-03-16 13:30:00,
2013-03-16 09:35:00,59.4,46.4,30.01,WSW,250,8.0,12.0,62,0.00,,---,0.00,308.00,VWS V14.01,2013-03-16 13:35:00,
2013-03-16 09:41:00,59.8,45.9,30.01,West,277,15.0,15.0,60,0.00,,---,0.00,322.00,VWS V14.01,2013-03-16 13:41:00,
2013-03-16 09:46:00,60.2,46.3,30.01,SW,220,11.0,16.0,60,0.00,,---,0.00,336.00,VWS V14.01,2013-03-16 13:46:00,
2013-03-16 09:51:00,60.6,46.2,30.00,WSW,257,10.0,18.0,59,0.00,,---,0.00,352.00,VWS V14.01,2013-03-16 13:51:00,
2013-03-16 09:56:00,61.0,47.0,30.00,WSW,247,9.0,14.0,60,0.00,,---,0.00,360.00,VWS V14.01,2013-03-16 13:56:00,
2013-03-16 10:01:00,61.4,46.5,30.00,WSW,240,11.0,11.0,58,0.00,,---,0.00,367.00,VWS V14.01,2013-03-16 14:01:00,
2013-03-16 10:06:00,61.8,46.9,30.00,WSW,242,5.0,7.0,58,0.00,,---,0.00,373.00,VWS V14.01,2013-03-16 14:06:00,
2013-03-16 10:11:00,62.2,46.8,30.00,WSW,248,8.0,10.0,57,0.00,,---,0.00,376.00,VWS V14.01,2013-03-16 14:11:00,
2013-03-16 10:17:00,62.7,47.3,30.00,WSW,250,6.0,10.0,57,0.00,,---,0.00,385.00,VWS V14.01,2013-03-16 14:17:00,
2013-03-16 10:22:00,63.2,47.3,30.00,WSW,238,14.0,14.0,56,0.00,,---,0.00,394.00,VWS V14.01,2013-03-16 14:22:00,
2013-03-16 10:27:00,63.6,47.2,30.00,West,279,8.0,12.0,55,0.00,,---,0.00,410.00,VWS V14.01,2013-03-16 14:27:00,
2013-03-16 10:32:00,64.0,47.5,29.99,WSW,248,6.0,11.0,55,0.00,,---,0.00,422.00,VWS V14.01,2013-03-16 14:32:00,
2013-03-16 10:37:00,64.5,47.5,29.99,West,269,6.0,13.0,54,0.00,,---,0.00,422.00,VWS V14.01,2013-03-16 14:37:00,
2013-03-16 10:43:00,64.9,47.4,29.99,West,267,10.0,17.0,53,0.00,,---,0.00,411.00,VWS V14.01,2013-03-16 14:43:00,
2013-03-16 10:48:00,65.1,47.1,29.99,West,273,12.0,15.0,52,0.00,,---,0.00,406.00,VWS V14.01,2013-03-16 14:48:00,
2013-03-16 10:53:00,65.4,47.3,29.99,WSW,254,9.0,14.0,52,0.00,,---,0.00,413.00,VWS V14.01,2013-03-16 14:53:00,
2013-03-16 10:58:00,65.8,47.7,29.99,WSW,246,10.0,15.0,52,0.00,,---,0.00,438.00,VWS V14.01,2013-03-16 14:58:00,
2013-03-16 11:03:00,66.1,47.5,29.99,SW,235,11.0,18.0,51,0.00,,---,0.00,475.00,VWS V14.01,2013-03-16 15:03:00,
2013-03-16 11:08:00,66.5,47.8,29.99,West,260,7.0,10.0,51,0.00,,---,0.00,512.00,VWS V14.01,2013-03-16 15:08:00,
2013-03-16 11:13:00,67.0,47.8,29.99,WSW,239,5.0,19.0,50,0.00,,---,0.00,538.00,VWS V14.01,2013-03-16 15:13:00,
2013-03-16 11:18:00,67.4,47.6,29.99,West,274,7.0,15.0,49,0.00,,---,0.00,564.00,VWS V14.01,2013-03-16 15:18:00,
2013-03-16 11:24:00,67.9,48.1,29.99,West,265,7.0,14.0,49,0.00,,---,0.00,633.00,VWS V14.01,2013-03-16 15:24:00,
2013-03-16 11:29:00,68.1,47.7,29.98,West,261,11.0,16.0,48,0.00,,---,0.00,691.00,VWS V14.01,2013-03-16 15:29:00,
2013-03-16 11:34:00,68.4,47.4,29.98,WSW,242,12.0,15.0,47,0.00,,---,0.00,708.00,VWS V14.01,2013-03-16 15:34:00,
2013-03-16 11:39:00,69.1,47.5,29.98,West,277,7.0,15.0,46,0.00,,---,0.00,710.00,VWS V14.01,2013-03-16 15:39:00,
2013-03-16 11:44:00,69.5,48.4,29.98,WSW,244,10.0,14.0,47,0.00,,---,0.00,710.00,VWS V14.01,2013-03-16 15:44:00,
2013-03-16 11:49:00,69.8,47.5,29.97,West,281,11.0,15.0,45,0.00,,---,0.00,728.00,VWS V14.01,2013-03-16 15:49:00,
2013-03-16 11:54:00,70.2,48.5,29.97,West,271,12.0,19.0,46,0.00,,---,0.00,703.00,VWS V14.01,2013-03-16 15:54:00,
2013-03-16 11:59:00,70.6,47.7,29.97,West,271,6.0,18.0,44,0.00,,---,0.00,717.00,VWS V14.01,2013-03-16 15:59:00,
2013-03-16 12:04:00,70.8,48.4,29.96,West,267,11.0,14.0,45,0.00,,---,0.00,749.00,VWS V14.01,2013-03-16 16:04:00,
2013-03-16 12:09:00,71.3,47.7,29.96,West,264,15.0,18.0,43,0.00,,---,0.00,707.00,VWS V14.01,2013-03-16 16:09:00,
2013-03-16 12:14:00,71.6,47.9,29.96,WSW,252,9.0,17.0,43,0.00,,---,0.00,659.00,VWS V14.01,2013-03-16 16:14:00,
2013-03-16 12:20:00,71.7,49.8,29.96,SW,215,10.0,15.0,46,0.00,,---,0.00,763.00,VWS V14.01,2013-03-16 16:20:00,
2013-03-16 12:25:00,72.2,48.5,29.95,WSW,246,13.0,19.0,43,0.00,,---,0.00,772.00,VWS V14.01,2013-03-16 16:25:00,
2013-03-16 12:30:00,72.5,48.1,29.95,West,270,12.0,17.0,42,0.00,,---,0.00,819.00,VWS V14.01,2013-03-16 16:30:00,
2013-03-16 12:35:00,72.9,47.8,29.95,West,280,12.0,19.0,41,0.00,,---,0.00,853.00,VWS V14.01,2013-03-16 16:35:00,
2013-03-16 12:40:00,73.4,48.3,29.94,SW,220,13.0,18.0,41,0.00,,---,0.00,888.00,VWS V14.01,2013-03-16 16:40:00,
2013-03-16 12:45:00,73.8,48.7,29.94,SW,224,14.0,21.0,41,0.00,,---,0.00,895.00,VWS V14.01,2013-03-16 16:45:00,
2013-03-16 12:50:00,74.2,49.0,29.94,WSW,254,15.0,18.0,41,0.00,,---,0.00,923.00,VWS V14.01,2013-03-16 16:50:00,
2013-03-16 12:55:00,74.6,48.7,29.93,SSW,211,15.0,17.0,40,0.00,,---,0.00,807.00,VWS V14.01,2013-03-16 16:55:00,
2013-03-16 13:00:00,75.0,48.4,29.94,WSW,239,9.0,21.0,39,0.00,,---,0.00,837.00,VWS V14.01,2013-03-16 17:00:00,
2013-03-16 13:06:00,75.2,47.9,29.93,WSW,250,14.0,18.0,38,0.00,,---,0.00,882.00,VWS V14.01,2013-03-16 17:06:00,
2013-03-16 13:11:00,75.4,48.8,29.93,WSW,244,14.0,20.0,39,0.00,,---,0.00,737.00,VWS V14.01,2013-03-16 17:11:00,
2013-03-16 13:16:00,75.6,47.5,29.92,SW,223,14.0,24.0,37,0.00,,---,0.00,745.00,VWS V14.01,2013-03-16 17:16:00,
2013-03-16 13:21:00,75.8,47.7,29.92,WSW,257,16.0,18.0,37,0.00,,---,0.00,768.00,VWS V14.01,2013-03-16 17:21:00,
2013-03-16 13:27:00,76.1,46.5,29.92,WSW,254,11.0,19.0,35,0.00,,---,0.00,800.00,VWS V14.01,2013-03-16 17:27:00,
2013-03-16 13:32:00,76.4,47.5,29.92,SW,228,14.0,19.0,36,0.00,,---,0.00,823.00,VWS V14.01,2013-03-16 17:32:00,
2013-03-16 13:37:00,76.7,47.0,29.92,WSW,254,16.0,17.0,35,0.00,,---,0.00,791.00,VWS V14.01,2013-03-16 17:37:00,
2013-03-16 13:42:00,76.9,47.9,29.91,West,265,12.0,20.0,36,0.00,,---,0.00,840.00,VWS V14.01,2013-03-16 17:42:00,
2013-03-16 13:47:00,77.3,46.0,29.91,WSW,240,22.0,22.0,33,0.00,,---,0.00,677.00,VWS V14.01,2013-03-16 17:47:00,
2013-03-16 13:52:00,77.1,46.6,29.91,SW,236,11.0,15.0,34,0.00,,---,0.00,828.00,VWS V14.01,2013-03-16 17:52:00,
2013-03-16 13:57:00,77.3,46.0,29.90,West,263,12.0,16.0,33,0.00,,---,0.00,921.00,VWS V14.01,2013-03-16 17:57:00,
2013-03-16 14:02:00,77.7,47.1,29.90,WSW,256,9.0,22.0,34,0.00,,---,0.00,895.00,VWS V14.01,2013-03-16 18:02:00,
2013-03-16 14:08:00,78.4,47.0,29.90,WSW,244,11.0,17.0,33,0.00,,---,0.00,909.00,VWS V14.01,2013-03-16 18:08:00,
2013-03-16 14:13:00,78.4,45.3,29.90,WSW,255,21.0,25.0,31,0.00,,---,0.00,907.00,VWS V14.01,2013-03-16 18:13:00,
2013-03-16 14:18:00,78.1,45.0,29.89,WSW,242,20.0,20.0,31,0.00,,---,0.00,912.00,VWS V14.01,2013-03-16 18:18:00,
2013-03-16 14:23:00,78.3,45.2,29.89,SW,232,15.0,20.0,31,0.00,,---,0.00,888.00,VWS V14.01,2013-03-16 18:23:00,
2013-03-16 14:28:00,78.2,46.0,29.89,WSW,252,9.0,15.0,32,0.00,,---,0.00,881.00,VWS V14.01,2013-03-16 18:28:00,
2013-03-16 14:33:00,78.5,46.2,29.88,WSW,246,12.0,18.0,32,0.00,,---,0.00,896.00,VWS V14.01,2013-03-16 18:33:00,
2013-03-16 14:38:00,78.6,45.5,29.88,WSW,249,13.0,22.0,31,0.00,,---,0.00,895.00,VWS V14.01,2013-03-16 18:38:00,
2013-03-16 14:43:00,78.6,45.5,29.87,SW,227,18.0,18.0,31,0.00,,---,0.00,819.00,VWS V14.01,2013-03-16 18:43:00,
2013-03-16 14:48:00,78.7,45.6,29.87,WSW,248,14.0,24.0,31,0.00,,---,0.00,867.00,VWS V14.01,2013-03-16 18:48:00,
2013-03-16 14:54:00,78.9,46.6,29.87,WSW,246,12.0,16.0,32,0.00,,---,0.00,831.00,VWS V14.01,2013-03-16 18:54:00,
2013-03-16 14:58:00,79.0,46.7,29.87,SW,216,7.0,16.0,32,0.00,,---,0.00,831.00,VWS V14.01,2013-03-16 18:58:00,
2013-03-16 15:04:00,79.4,46.2,29.87,SW,233,13.0,19.0,31,0.00,,---,0.00,821.00,VWS V14.01,2013-03-16 19:04:00,
2013-03-16 15:09:00,79.6,45.5,29.86,West,270,21.0,21.0,30,0.00,,---,0.00,800.00,VWS V14.01,2013-03-16 19:09:00,
2013-03-16 15:14:00,79.4,45.3,29.86,WSW,237,15.0,26.0,30,0.00,,---,0.00,770.00,VWS V14.01,2013-03-16 19:14:00,
2013-03-16 15:19:00,79.2,46.0,29.86,WSW,246,16.0,22.0,31,0.00,,---,0.00,745.00,VWS V14.01,2013-03-16 19:19:00,
2013-03-16 15:24:00,79.2,46.0,29.86,SW,221,10.0,20.0,31,0.00,,---,0.00,703.00,VWS V14.01,2013-03-16 19:24:00,
2013-03-16 15:29:00,79.5,47.9,29.86,WSW,240,13.0,19.0,33,0.00,,---,0.00,388.00,VWS V14.01,2013-03-16 19:29:00,
2013-03-16 15:34:00,79.6,45.5,29.86,SW,234,12.0,21.0,30,0.00,,---,0.00,642.00,VWS V14.01,2013-03-16 19:34:00,
2013-03-16 15:39:00,79.6,44.6,29.86,WSW,244,14.0,18.0,29,0.00,,---,0.00,612.00,VWS V14.01,2013-03-16 19:39:00,
2013-03-16 15:45:00,79.7,45.6,29.86,WSW,241,13.0,21.0,30,0.00,,---,0.00,587.00,VWS V14.01,2013-03-16 19:45:00,
2013-03-16 15:50:00,79.6,45.5,29.86,SW,236,14.0,20.0,30,0.00,,---,0.00,575.00,VWS V14.01,2013-03-16 19:50:00,
2013-03-16 15:55:00,79.6,47.2,29.86,SW,221,12.0,16.0,32,0.00,,---,0.00,564.00,VWS V14.01,2013-03-16 19:55:00,
2013-03-16 16:00:00,79.7,46.4,29.86,WSW,242,14.0,19.0,31,0.00,,---,0.00,570.00,VWS V14.01,2013-03-16 20:00:00,
2013-03-16 16:05:00,79.6,46.3,29.86,WSW,239,14.0,19.0,31,0.00,,---,0.00,573.00,VWS V14.01,2013-03-16 20:05:00,
2013-03-16 16:10:00,79.3,45.2,29.85,SW,227,14.0,24.0,30,0.00,,---,0.00,584.00,VWS V14.01,2013-03-16 20:10:00,
2013-03-16 16:15:00,79.2,45.1,29.85,WSW,238,16.0,23.0,30,0.00,,---,0.00,599.00,VWS V14.01,2013-03-16 20:15:00,
2013-03-16 16:21:00,79.4,45.3,29.85,West,265,12.0,23.0,30,0.00,,---,0.00,605.00,VWS V14.01,2013-03-16 20:21:00,
2013-03-16 16:26:00,79.7,45.6,29.85,SW,236,12.0,22.0,30,0.00,,---,0.00,610.00,VWS V14.01,2013-03-16 20:26:00,
2013-03-16 16:31:00,79.7,45.6,29.85,SW,215,12.0,21.0,30,0.00,,---,0.00,610.00,VWS V14.01,2013-03-16 20:31:00,
2013-03-16 16:36:00,79.7,45.6,29.85,WSW,248,11.0,22.0,30,0.00,,---,0.00,599.00,VWS V14.01,2013-03-16 20:36:00,
2013-03-16 16:41:00,79.6,44.6,29.85,WSW,246,14.0,27.0,29,0.00,,---,0.00,584.00,VWS V14.01,2013-03-16 20:41:00,
2013-03-16 16:46:00,79.4,43.5,29.85,SW,227,19.0,19.0,28,0.00,,---,0.00,564.00,VWS V14.01,2013-03-16 20:46:00,
2013-03-16 16:51:00,79.1,44.2,29.84,WSW,252,17.0,21.0,29,0.00,,---,0.00,492.00,VWS V14.01,2013-03-16 20:51:00,
2013-03-16 16:57:00,79.1,43.2,29.84,WSW,252,19.0,19.0,28,0.00,,---,0.00,65.00,VWS V14.01,2013-03-16 20:57:00,
2013-03-16 17:02:00,79.1,43.2,29.84,SSW,202,21.0,21.0,28,0.00,,---,0.00,70.00,VWS V14.01,2013-03-16 21:02:00,
2013-03-16 17:07:00,79.1,43.2,29.84,WSW,250,17.0,17.0,28,0.00,,---,0.00,487.00,VWS V14.01,2013-03-16 21:07:00,
2013-03-16 17:12:00,79.1,44.2,29.84,SW,234,15.0,24.0,29,0.00,,---,0.00,480.00,VWS V14.01,2013-03-16 21:12:00,
2013-03-16 17:17:00,78.9,44.0,29.85,SSW,201,13.0,19.0,29,0.00,,---,0.00,462.00,VWS V14.01,2013-03-16 21:17:00,
2013-03-16 17:23:00,78.9,44.9,29.85,WSW,248,9.0,16.0,30,0.00,,---,0.00,443.00,VWS V14.01,2013-03-16 21:23:00,
2013-03-16 17:28:00,78.9,44.9,29.85,WSW,237,13.0,23.0,30,0.00,,---,0.00,425.00,VWS V14.01,2013-03-16 21:28:00,
2013-03-16 17:33:00,78.8,45.6,29.85,WSW,246,13.0,19.0,31,0.00,,---,0.00,406.00,VWS V14.01,2013-03-16 21:33:00,
2013-03-16 17:38:00,78.7,46.4,29.85,SW,235,15.0,21.0,32,0.00,,---,0.00,381.00,VWS V14.01,2013-03-16 21:38:00,
2013-03-16 17:43:00,78.4,46.1,29.85,WSW,250,7.0,22.0,32,0.00,,---,0.00,360.00,VWS V14.01,2013-03-16 21:43:00,
2013-03-16 17:48:00,78.3,46.0,29.85,WSW,244,15.0,20.0,32,0.00,,---,0.00,343.00,VWS V14.01,2013-03-16 21:48:00,
2013-03-16 17:53:00,78.2,46.8,29.85,SSW,209,16.0,17.0,33,0.00,,---,0.00,327.00,VWS V14.01,2013-03-16 21:53:00,
2013-03-16 17:58:00,78.1,45.9,29.85,SW,219,6.0,16.0,32,0.00,,---,0.00,309.00,VWS V14.01,2013-03-16 21:58:00,
2013-03-16 18:03:00,78.0,45.8,29.85,SW,227,10.0,17.0,32,0.00,,---,0.00,285.00,VWS V14.01,2013-03-16 22:03:00,
2013-03-16 18:08:00,77.9,46.5,29.85,WSW,244,11.0,16.0,33,0.00,,---,0.00,267.00,VWS V14.01,2013-03-16 22:08:00,
2013-03-16 18:14:00,77.8,46.4,29.85,West,261,12.0,21.0,33,0.00,,---,0.00,244.00,VWS V14.01,2013-03-16 22:14:00,
2013-03-16 18:19:00,77.6,46.2,29.85,SW,221,10.0,20.0,33,0.00,,---,0.00,221.00,VWS V14.01,2013-03-16 22:19:00,
2013-03-16 18:24:00,77.3,46.0,29.85,SW,215,13.0,17.0,33,0.00,,---,0.00,200.00,VWS V14.01,2013-03-16 22:24:00,
2013-03-16 18:29:00,77.1,46.6,29.85,SW,234,7.0,23.0,34,0.00,,---,0.00,178.00,VWS V14.01,2013-03-16 22:29:00,
2013-03-16 18:34:00,77.0,47.3,29.85,SW,226,8.0,12.0,35,0.00,,---,0.00,155.00,VWS V14.01,2013-03-16 22:34:00,
2013-03-16 18:39:00,76.9,47.2,29.85,WSW,241,8.0,11.0,35,0.00,,---,0.00,134.00,VWS V14.01,2013-03-16 22:39:00,
2013-03-16 18:45:00,76.7,46.2,29.85,SSW,202,11.0,19.0,34,0.00,,---,0.00,113.00,VWS V14.01,2013-03-16 22:45:00,
2013-03-16 18:50:00,76.4,46.0,29.86,SW,226,13.0,16.0,34,0.00,,---,0.00,95.00,VWS V14.01,2013-03-16 22:50:00,
2013-03-16 18:55:00,76.1,45.7,29.86,SW,217,12.0,21.0,34,0.00,,---,0.00,77.00,VWS V14.01,2013-03-16 22:55:00,
2013-03-16 19:00:00,75.9,45.5,29.86,SSW,204,10.0,19.0,34,0.00,,---,0.00,62.00,VWS V14.01,2013-03-16 23:00:00,
2013-03-16 19:05:00,75.6,46.0,29.86,WSW,240,9.0,18.0,35,0.00,,---,0.00,47.00,VWS V14.01,2013-03-16 23:05:00,
2013-03-16 19:10:00,75.3,45.8,29.86,WSW,240,11.0,17.0,35,0.00,,---,0.00,33.00,VWS V14.01,2013-03-16 23:10:00,
2013-03-16 19:15:00,75.1,45.6,29.86,SW,236,5.0,15.0,35,0.00,,---,0.00,25.00,VWS V14.01,2013-03-16 23:15:00,
2013-03-16 19:21:00,74.8,45.3,29.87,SW,225,8.0,13.0,35,0.00,,---,0.00,18.00,VWS V14.01,2013-03-16 23:21:00,
2013-03-16 19:26:00,74.5,45.8,29.87,WSW,245,7.0,13.0,36,0.00,,---,0.00,12.00,VWS V14.01,2013-03-16 23:26:00,
2013-03-16 19:31:00,74.1,45.5,29.87,SW,220,11.0,14.0,36,0.00,,---,0.00,7.00,VWS V14.01,2013-03-16 23:31:00,
2013-03-16 19:36:00,73.8,45.2,29.87,SW,234,10.0,18.0,36,0.00,,---,0.00,0.00,VWS V14.01,2013-03-16 23:36:00,
2013-03-16 19:41:00,73.5,44.9,29.87,WSW,242,9.0,16.0,36,0.00,,---,0.00,0.00,VWS V14.01,2013-03-16 23:41:00,
2013-03-16 19:46:00,73.3,45.5,29.87,WSW,242,6.0,11.0,37,0.00,,---,0.00,0.00,VWS V14.01,2013-03-16 23:46:00,
2013-03-16 19:51:00,73.0,45.2,29.87,SW,231,5.0,5.0,37,0.00,,---,0.00,0.00,VWS V14.01,2013-03-16 23:51:00,
2013-03-16 19:57:00,72.6,45.6,29.88,WSW,248,8.0,8.0,38,0.00,,---,0.00,0.00,VWS V14.01,2013-03-16 23:57:00,
2013-03-16 20:02:00,72.3,45.3,29.88,WSW,245,12.0,15.0,38,0.00,,---,0.00,0.00,VWS V14.01,2013-03-17 00:02:00,
2013-03-16 20:07:00,72.1,45.8,29.88,SW,234,7.0,9.0,39,0.00,,---,0.00,0.00,VWS V14.01,2013-03-17 00:07:00,
2013-03-16 20:12:00,71.9,45.6,29.88,SW,234,9.0,9.0,39,0.00,,---,0.00,0.00,VWS V14.01,2013-03-17 00:12:00,
2013-03-16 20:17:00,71.6,45.4,29.88,SW,223,9.0,9.0,39,0.00,,---,0.00,0.00,VWS V14.01,2013-03-17 00:17:00,
2013-03-16 20:22:00,71.5,45.9,29.89,SW,236,8.0,8.0,40,0.00,,---,0.00,0.00,VWS V14.01,2013-03-17 00:22:00,
2013-03-16 20:27:00,71.3,46.4,29.89,SW,221,8.0,9.0,41,0.00,,---,0.00,0.00,VWS V14.01,2013-03-17 00:27:00,
2013-03-16 20:32:00,71.1,46.2,29.89,SW,236,6.0,10.0,41,0.00,,---,0.00,0.00,VWS V14.01,2013-03-17 00:32:00,
2013-03-16 20:37:00,70.9,46.7,29.89,SW,235,5.0,6.0,42,0.00,,---,0.00,0.00,VWS V14.01,2013-03-17 00:37:00,
2013-03-16 20:42:00,70.7,46.5,29.89,SW,236,7.0,7.0,42,0.00,,---,0.00,0.00,VWS V14.01,2013-03-17 00:42:00,
2013-03-16 20:47:00,70.4,46.2,29.90,SW,219,4.0,7.0,42,0.00,,---,0.00,0.00,VWS V14.01,2013-03-17 00:47:00,
2013-03-16 20:53:00,70.2,46.7,29.90,SW,226,4.0,8.0,43,0.00,,---,0.00,0.00,VWS V14.01,2013-03-17 00:53:00,
2013-03-16 20:58:00,70.0,46.5,29.90,SW,231,5.0,6.0,43,0.00,,---,0.00,0.00,VWS V14.01,2013-03-17 00:58:00,
2013-03-16 21:03:00,69.7,46.8,29.91,SW,236,6.0,9.0,44,0.00,,---,0.00,0.00,VWS V14.01,2013-03-17 01:03:00,
2013-03-16 21:08:00,69.5,46.7,29.91,SW,229,5.0,9.0,44,0.00,,---,0.00,0.00,VWS V14.01,2013-03-17 01:08:00,
2013-03-16 21:13:00,69.3,46.5,29.91,SW,235,6.0,10.0,44,0.00,,---,0.00,0.00,VWS V14.01,2013-03-17 01:13:00,
2013-03-16 21:18:00,69.1,46.9,29.91,SW,226,5.0,9.0,45,0.00,,---,0.00,0.00,VWS V14.01,2013-03-17 01:18:00,
2013-03-16 21:24:00,69.0,46.8,29.91,WSW,238,5.0,9.0,45,0.00,,---,0.00,0.00,VWS V14.01,2013-03-17 01:24:00,
2013-03-16 21:29:00,68.8,46.6,29.92,SW,227,5.0,7.0,45,0.00,,---,0.00,0.00,VWS V14.01,2013-03-17 01:29:00,
2013-03-16 21:34:00,68.7,46.5,29.92,SSW,207,5.0,7.0,45,0.00,,---,0.00,0.00,VWS V14.01,2013-03-17 01:34:00,
2013-03-16 21:39:00,68.5,46.3,29.92,SW,227,5.0,11.0,45,0.00,,---,0.00,0.00,VWS V14.01,2013-03-17 01:39:00,
2013-03-16 21:44:00,68.3,46.2,29.92,SW,225,3.0,10.0,45,0.00,,---,0.00,0.00,VWS V14.01,2013-03-17 01:44:00,
2013-03-16 21:49:00,68.2,46.1,29.92,SW,217,5.0,7.0,45,0.00,,---,0.00,0.00,VWS V14.01,2013-03-17 01:49:00,
2013-03-16 21:54:00,68.1,46.0,29.92,SW,216,9.0,11.0,45,0.00,,---,0.00,0.00,VWS V14.01,2013-03-17 01:54:00,
2013-03-16 21:59:00,68.1,45.4,29.92,SW,229,5.0,10.0,44,0.00,,---,0.00,0.00,VWS V14.01,2013-03-17 01:59:00,
2013-03-16 22:04:00,68.1,45.4,29.92,SW,223,6.0,9.0,44,0.00,,---,0.00,0.00,VWS V14.01,2013-03-17 02:04:00,
2013-03-16 22:10:00,68.0,45.3,29.92,WSW,237,5.0,8.0,44,0.00,,---,0.00,0.00,VWS V14.01,2013-03-17 02:10:00,
2013-03-16 22:15:00,68.0,45.3,29.92,SW,234,5.0,7.0,44,0.00,,---,0.00,0.00,VWS V14.01,2013-03-17 02:15:00,
2013-03-16 22:20:00,67.8,45.7,29.93,SW,225,5.0,11.0,45,0.00,,---,0.00,0.00,VWS V14.01,2013-03-17 02:20:00,
2013-03-16 22:25:00,67.7,45.6,29.93,SSW,203,7.0,7.0,45,0.00,,---,0.00,0.00,VWS V14.01,2013-03-17 02:25:00,
2013-03-16 22:30:00,67.6,45.5,29.93,WSW,246,4.0,7.0,45,0.00,,---,0.00,0.00,VWS V14.01,2013-03-17 02:30:00,
2013-03-16 22:35:00,67.5,45.4,29.93,SW,230,5.0,9.0,45,0.00,,---,0.00,0.00,VWS V14.01,2013-03-17 02:35:00,
2013-03-16 22:41:00,67.5,45.4,29.93,SSW,212,4.0,6.0,45,0.00,,---,0.00,0.00,VWS V14.01,2013-03-17 02:41:00,
2013-03-16 22:46:00,67.4,45.3,29.94,SW,223,4.0,8.0,45,0.00,,---,0.00,0.00,VWS V14.01,2013-03-17 02:46:00,
2013-03-16 22:51:00,67.3,45.8,29.94,SW,232,3.0,9.0,46,0.00,,---,0.00,0.00,VWS V14.01,2013-03-17 02:51:00,
2013-03-16 22:56:00,67.4,45.9,29.94,SW,234,5.0,7.0,46,0.00,,---,0.00,0.00,VWS V14.01,2013-03-17 02:56:00,
2013-03-16 23:01:00,67.3,45.8,29.94,WSW,240,5.0,9.0,46,0.00,,---,0.00,0.00,VWS V14.01,2013-03-17 03:01:00,
2013-03-16 23:06:00,67.3,45.8,29.94,SW,226,4.0,11.0,46,0.00,,---,0.00,0.00,VWS V14.01,2013-03-17 03:06:00,
2013-03-16 23:12:00,67.2,45.7,29.94,SW,228,2.0,4.0,46,0.00,,---,0.00,0.00,VWS V14.01,2013-03-17 03:12:00,
2013-03-16 23:17:00,67.1,46.2,29.94,SW,232,6.0,8.0,47,0.00,,---,0.00,0.00,VWS V14.01,2013-03-17 03:17:00,
2013-03-16 23:22:00,67.1,46.2,29.94,SW,223,5.0,6.0,47,0.00,,---,0.00,0.00,VWS V14.01,2013-03-17 03:22:00,
2013-03-16 23:27:00,67.0,46.1,29.94,SW,221,3.0,4.0,47,0.00,,---,0.00,0.00,VWS V14.01,2013-03-17 03:27:00,
2013-03-16 23:32:00,66.9,46.6,29.94,WSW,240,5.0,5.0,48,0.00,,---,0.00,0.00,VWS V14.01,2013-03-17 03:32:00,
2013-03-16 23:37:00,66.8,46.5,29.94,SW,235,4.0,6.0,48,0.00,,---,0.00,0.00,VWS V14.01,2013-03-17 03:37:00,
2013-03-16 23:42:00,66.7,46.4,29.94,SW,228,3.0,4.0,48,0.00,,---,0.00,0.00,VWS V14.01,2013-03-17 03:42:00,
2013-03-16 23:47:00,66.6,46.3,29.94,WSW,242,6.0,7.0,48,0.00,,---,0.00,0.00,VWS V14.01,2013-03-17 03:47:00,
2013-03-16 23:52:00,66.6,46.3,29.94,SW,232,6.0,8.0,48,0.00,,---,0.00,0.00,VWS V14.01,2013-03-17 03:52:00,
2013-03-16 23:57:00,66.5,46.2,29.94,WSW,242,4.0,6.0,48,0.00,,---,0.00,0.00,VWS V14.01,2013-03-17 03:57:00,